1998-067UM

Last updated on Tue Apr 25 2023 00:02:07 GMT+0000 (Coordinated Universal Time)

1 54535U 98067UM 23113.62422885 .04603144 12064-4 13784-2 0 9993 2 54535 51.6192 221.0168 0012583 325.3480 165.6837 16.26021524 22359

Satellite not in orbit